Location: Boiro
(42.6475°N, 8.8834°W)
Time: 17:37:15
(UTC+01:00)

Tiros 1 - Pass Details

Date: 15 December 2021
Orbit: 630 x 663 km, 48.4° (Epoch: 20 January)

Event Time Altitude Azimuth Distance (km) Brightness Sun altitude
Rises 17:39:37 0° 269° (W) 2,912 11.5 2.7°
Reaches altitude 10° 17:42:01 10° 276° (W) 2,006 10.5 2.3°
Maximum altitude 17:46:27 45° 349° (N) 866 7.7 1.7°
Drops below altitude 10° 17:50:54 10° 63° (ENE) 2,019 9.1 1.0°
Sets 17:53:20 0° 70° (ENE) 2,933 9.9 0.6°
